date,time,SUV Intensity [MED/Hr],UV Index,Daily total [MED],Since Last [MED]
08/07/2022,00:10:08,0.000,0.0,0.0,0.0
08/07/2022,00:11:08,0.000,0.0,0.0,0.0
08/07/2022,00:12:08,0.000,0.0,0.0,0.0
08/07/2022,00:13:16,-0.000,0.0,0.0,0.0
08/07/2022,00:14:08,0.001,0.0,0.0,0.0
08/07/2022,00:15:08,0.000,0.0,0.0,0.0
08/07/2022,00:16:08,0.000,0.0,0.0,0.0
08/07/2022,00:17:08,0.001,0.0,0.0,0.0
08/07/2022,00:18:08,0.000,0.0,0.0,0.0
08/07/2022,00:19:09,0.000,0.0,0.0,0.0
08/07/2022,00:20:08,0.001,0.0,0.0,0.0
08/07/2022,00:21:08,-0.000,0.0,0.0,0.0
08/07/2022,00:22:08,-0.000,0.0,0.0,0.0
08/07/2022,00:23:17,0.002,0.0,0.0,0.0
08/07/2022,00:24:08,0.000,0.0,0.0,0.0
08/07/2022,00:25:08,0.000,0.0,0.0,0.0
08/07/2022,00:26:08,0.000,0.0,0.0,0.0
08/07/2022,00:27:09,0.001,0.0,0.0,0.0
08/07/2022,00:28:09,0.000,0.0,0.0,0.0
08/07/2022,00:29:08,0.000,0.0,0.0,0.0
08/07/2022,00:30:08,0.000,0.0,0.0,0.0
08/07/2022,00:31:17,0.000,0.0,0.0,0.0
08/07/2022,00:32:09,0.000,0.0,0.0,0.0
08/07/2022,00:33:08,0.000,0.0,0.0,0.0
08/07/2022,00:34:08,-0.000,0.0,0.0,0.0
08/07/2022,00:35:09,0.000,0.0,0.0,0.0
08/07/2022,00:36:10,0.000,0.0,0.0,0.0
08/07/2022,00:37:08,0.000,0.0,0.0,0.0
08/07/2022,00:38:08,-0.000,0.0,0.0,0.0
08/07/2022,00:39:08,0.000,0.0,0.0,0.0
08/07/2022,00:40:08,0.000,0.0,0.0,0.0
08/07/2022,00:41:17,0.000,0.0,0.0,0.0
08/07/2022,00:42:08,0.000,0.0,0.0,0.0
08/07/2022,00:43:08,-0.000,0.0,0.0,0.0
08/07/2022,00:44:14,-0.000,0.0,0.0,0.0
08/07/2022,00:45:08,-0.000,0.0,0.0,0.0
08/07/2022,00:46:08,0.000,0.0,0.0,0.0
08/07/2022,00:47:08,0.001,0.0,0.0,0.0
08/07/2022,00:48:08,0.001,0.0,0.0,0.0
08/07/2022,00:49:08,0.000,0.0,0.0,0.0
08/07/2022,00:50:16,-0.000,0.0,0.0,0.0
08/07/2022,00:51:08,0.000,0.0,0.0,0.0
08/07/2022,00:52:08,-0.000,0.0,0.0,0.0
08/07/2022,00:53:08,0.000,0.0,0.0,0.0
08/07/2022,00:54:08,0.000,0.0,0.0,0.0
08/07/2022,00:55:08,0.001,0.0,0.0,0.0
08/07/2022,00:56:08,-0.000,0.0,0.0,0.0
08/07/2022,00:57:08,0.000,0.0,0.0,0.0
08/07/2022,00:58:08,0.000,0.0,0.0,0.0
08/07/2022,00:59:17,0.000,0.0,0.0,0.0
08/07/2022,01:00:08,0.002,0.0,0.0,0.0
08/07/2022,01:01:08,0.000,0.0,0.0,0.0
08/07/2022,01:02:08,0.000,0.0,0.0,0.0
08/07/2022,01:03:08,-0.000,0.0,0.0,0.0
08/07/2022,01:04:09,0.000,0.0,0.0,0.0
08/07/2022,01:05:08,-0.000,0.0,0.0,0.0
08/07/2022,01:06:09,0.000,0.0,0.0,0.0
08/07/2022,01:07:08,0.001,0.0,0.0,0.0
08/07/2022,01:08:08,0.001,0.0,0.0,0.0
08/07/2022,01:09:09,0.000,0.0,0.0,0.0
08/07/2022,01:10:08,0.000,0.0,0.0,0.0
08/07/2022,01:11:08,-0.000,0.0,0.0,0.0
08/07/2022,01:12:09,0.000,0.0,0.0,0.0
08/07/2022,01:13:08,0.000,0.0,0.0,0.0
08/07/2022,01:14:08,-0.000,0.0,0.0,0.0
08/07/2022,01:15:16,0.002,0.0,0.0,0.0
08/07/2022,01:16:08,0.001,0.0,0.0,0.0
08/07/2022,01:17:08,0.001,0.0,0.0,0.0
08/07/2022,01:18:16,0.000,0.0,0.0,0.0
08/07/2022,01:19:08,0.001,0.0,0.0,0.0
08/07/2022,01:20:08,0.001,0.0,0.0,0.0
08/07/2022,01:21:16,0.001,0.0,0.0,0.0
08/07/2022,01:22:08,0.001,0.0,0.0,0.0
08/07/2022,01:23:08,0.001,0.0,0.0,0.0
08/07/2022,01:24:08,0.000,0.0,0.0,0.0
08/07/2022,01:25:08,0.001,0.0,0.0,0.0
08/07/2022,01:26:08,0.001,0.0,0.0,0.0
08/07/2022,01:27:08,0.002,0.0,0.0,0.0
08/07/2022,01:28:09,0.001,0.0,0.0,0.0
08/07/2022,01:29:08,0.001,0.0,0.0,0.0
08/07/2022,01:30:08,0.001,0.0,0.0,0.0
08/07/2022,01:31:08,0.001,0.0,0.0,0.0
08/07/2022,01:32:08,0.001,0.0,0.0,0.0
08/07/2022,01:33:16,0.000,0.0,0.0,0.0
08/07/2022,01:34:08,-0.000,0.0,0.0,0.0
08/07/2022,01:35:08,0.001,0.0,0.0,0.0
08/07/2022,01:36:09,0.001,0.0,0.0,0.0
08/07/2022,01:37:08,0.000,0.0,0.0,0.0
08/07/2022,01:38:08,0.000,0.0,0.0,0.0
08/07/2022,01:39:08,0.002,0.0,0.0,0.0
08/07/2022,01:40:09,0.001,0.0,0.0,0.0
08/07/2022,01:41:08,0.001,0.0,0.0,0.0
08/07/2022,01:42:08,0.001,0.0,0.0,0.0
08/07/2022,01:43:08,0.001,0.0,0.0,0.0
08/07/2022,01:44:09,-0.000,0.0,0.0,0.0
08/07/2022,01:45:08,-0.000,0.0,0.0,0.0
08/07/2022,01:46:08,0.001,0.0,0.0,0.0
08/07/2022,01:47:08,0.002,0.0,0.0,0.0
08/07/2022,01:48:08,-0.000,0.0,0.0,0.0
08/07/2022,01:49:16,0.001,0.0,0.0,0.0
08/07/2022,01:50:08,-0.000,0.0,0.0,0.0
08/07/2022,01:51:08,0.001,0.0,0.0,0.0
08/07/2022,01:52:17,0.001,0.0,0.0,0.0
08/07/2022,01:53:08,-0.000,0.0,0.0,0.0
08/07/2022,01:54:08,0.001,0.0,0.0,0.0
08/07/2022,01:55:02,0.001,0.0,0.0,0.0
08/07/2022,01:56:09,0.001,0.0,0.0,0.0
08/07/2022,01:57:08,0.001,0.0,0.0,0.0
08/07/2022,01:58:08,0.001,0.0,0.0,0.0
08/07/2022,01:59:09,0.001,0.0,0.0,0.0
08/07/2022,02:00:08,0.001,0.0,0.0,0.0
08/07/2022,02:01:08,0.001,0.0,0.0,0.0
08/07/2022,02:02:08,0.000,0.0,0.0,0.0
08/07/2022,02:03:08,0.001,0.0,0.0,0.0
08/07/2022,02:04:09,0.001,0.0,0.0,0.0
08/07/2022,02:05:17,0.001,0.0,0.0,0.0
08/07/2022,02:06:08,0.001,0.0,0.0,0.0
08/07/2022,02:07:16,0.001,0.0,0.0,0.0
08/07/2022,02:08:17,0.001,0.0,0.0,0.0
08/07/2022,02:09:08,0.001,0.0,0.0,0.0
08/07/2022,02:10:08,0.001,0.0,0.0,0.0
08/07/2022,02:11:17,0.001,0.0,0.0,0.0
08/07/2022,02:12:08,0.001,0.0,0.0,0.0
08/07/2022,02:13:09,0.000,0.0,0.0,0.0
08/07/2022,02:14:08,0.000,0.0,0.0,0.0
08/07/2022,02:15:09,0.001,0.0,0.0,0.0
08/07/2022,02:16:08,0.001,0.0,0.0,0.0
08/07/2022,02:17:09,0.001,0.0,0.0,0.0
08/07/2022,02:18:08,0.001,0.0,0.0,0.0
08/07/2022,02:19:09,0.001,0.0,0.0,0.0
08/07/2022,02:20:08,0.001,0.0,0.0,0.0
08/07/2022,02:21:16,0.001,0.0,0.0,0.0
08/07/2022,02:22:08,0.002,0.0,0.0,0.0
08/07/2022,02:23:17,0.001,0.0,0.0,0.0
08/07/2022,02:24:08,0.000,0.0,0.0,0.0
08/07/2022,02:25:08,0.001,0.0,0.0,0.0
08/07/2022,02:26:08,-0.000,0.0,0.0,0.0
08/07/2022,02:27:09,0.002,0.0,0.0,0.0
08/07/2022,02:28:08,0.002,0.0,0.0,0.0
08/07/2022,02:29:08,0.001,0.0,0.0,0.0
08/07/2022,02:30:08,0.001,0.0,0.0,0.0
08/07/2022,02:31:09,0.001,0.0,0.0,0.0
08/07/2022,02:32:09,0.001,0.0,0.0,0.0
08/07/2022,02:33:08,0.001,0.0,0.0,0.0
08/07/2022,02:34:08,0.000,0.0,0.0,0.0
08/07/2022,02:35:08,0.001,0.0,0.0,0.0
08/07/2022,02:36:16,0.001,0.0,0.0,0.0
08/07/2022,02:37:08,0.001,0.0,0.0,0.0
08/07/2022,02:38:08,0.001,0.0,0.0,0.0
08/07/2022,02:39:17,0.001,0.0,0.0,0.0
08/07/2022,02:40:08,0.001,0.0,0.0,0.0
08/07/2022,02:41:09,0.001,0.0,0.0,0.0
08/07/2022,02:42:17,0.002,0.0,0.0,0.0
08/07/2022,02:43:08,0.001,0.0,0.0,0.0
08/07/2022,02:44:08,0.001,0.0,0.0,0.0
08/07/2022,02:45:16,0.002,0.0,0.0,0.0
08/07/2022,02:46:08,0.001,0.0,0.0,0.0
08/07/2022,02:47:09,0.001,0.0,0.0,0.0
08/07/2022,02:48:16,0.001,0.0,0.0,0.0
08/07/2022,02:50:09,0.001,0.0,0.0,0.0
08/07/2022,02:51:08,0.001,0.0,0.0,0.0
08/07/2022,02:52:08,0.001,0.0,0.0,0.0
08/07/2022,02:53:17,0.000,0.0,0.0,0.0
08/07/2022,02:54:08,0.001,0.0,0.0,0.0
08/07/2022,02:55:08,0.001,0.0,0.0,0.0
08/07/2022,02:56:08,0.000,0.0,0.0,0.0
08/07/2022,02:57:08,0.001,0.0,0.0,0.0
08/07/2022,02:58:17,0.000,0.0,0.0,0.0
08/07/2022,02:59:08,0.001,0.0,0.0,0.0
08/07/2022,03:00:08,0.002,0.0,0.0,0.0
08/07/2022,03:01:08,0.002,0.0,0.0,0.0
08/07/2022,03:02:08,0.001,0.0,0.0,0.0
08/07/2022,03:03:09,0.000,0.0,0.0,0.0
08/07/2022,03:04:08,0.001,0.0,0.0,0.0
08/07/2022,03:05:09,0.002,0.0,0.0,0.0
08/07/2022,03:06:08,0.001,0.0,0.0,0.0
08/07/2022,03:07:08,0.001,0.0,0.0,0.0
08/07/2022,03:08:09,0.001,0.0,0.0,0.0
08/07/2022,03:09:08,0.001,0.0,0.0,0.0
08/07/2022,03:10:08,0.000,0.0,0.0,0.0
08/07/2022,03:11:09,0.001,0.0,0.0,0.0
08/07/2022,03:12:08,-0.000,0.0,0.0,0.0
08/07/2022,03:13:08,0.000,0.0,0.0,0.0
08/07/2022,03:14:08,0.002,0.0,0.0,0.0
08/07/2022,03:15:08,0.001,0.0,0.0,0.0
08/07/2022,03:16:08,0.001,0.0,0.0,0.0
08/07/2022,03:17:17,0.001,0.0,0.0,0.0
08/07/2022,03:18:08,0.000,0.0,0.0,0.0
08/07/2022,03:19:08,0.001,0.0,0.0,0.0
08/07/2022,03:20:08,0.001,0.0,0.0,0.0
08/07/2022,03:21:09,0.001,0.0,0.0,0.0
08/07/2022,03:22:08,0.000,0.0,0.0,0.0
08/07/2022,03:23:08,0.001,0.0,0.0,0.0
08/07/2022,03:24:09,0.000,0.0,0.0,0.0
08/07/2022,03:25:09,0.002,0.0,0.0,0.0
08/07/2022,03:26:08,0.001,0.0,0.0,0.0
08/07/2022,03:27:09,0.001,0.0,0.0,0.0
08/07/2022,03:28:08,0.001,0.0,0.0,0.0
08/07/2022,03:29:09,0.002,0.0,0.0,0.0
08/07/2022,03:30:16,0.002,0.0,0.0,0.0
08/07/2022,03:31:08,0.001,0.0,0.0,0.0
08/07/2022,03:32:08,0.001,0.0,0.0,0.0
08/07/2022,03:33:09,0.002,0.0,0.0,0.0
08/07/2022,03:34:08,0.000,0.0,0.0,0.0
08/07/2022,03:35:08,0.001,0.0,0.0,0.0
08/07/2022,03:36:08,0.001,0.0,0.0,0.0
08/07/2022,03:37:08,0.001,0.0,0.0,0.0
08/07/2022,03:38:08,0.002,0.0,0.0,0.0
08/07/2022,03:39:08,0.001,0.0,0.0,0.0
08/07/2022,03:40:09,0.001,0.0,0.0,0.0
08/07/2022,03:41:09,0.001,0.0,0.0,0.0
08/07/2022,03:42:09,0.001,0.0,0.0,0.0
08/07/2022,03:43:08,0.001,0.0,0.0,0.0
08/07/2022,03:44:09,0.001,0.0,0.0,0.0
08/07/2022,03:45:08,0.001,0.0,0.0,0.0
08/07/2022,03:46:41,0.001,0.0,0.0,0.0
08/07/2022,03:48:08,0.001,0.0,0.0,0.0
08/07/2022,03:49:09,0.001,0.0,0.0,0.0
08/07/2022,03:50:08,0.002,0.0,0.0,0.0
08/07/2022,03:51:08,0.001,0.0,0.0,0.0
08/07/2022,03:52:08,0.002,0.0,0.0,0.0
08/07/2022,03:53:09,0.002,0.0,0.0,0.0
08/07/2022,03:54:09,0.004,0.0,0.0,0.0
08/07/2022,03:55:09,0.003,0.0,0.0,0.0
08/07/2022,03:56:08,0.002,0.0,0.0,0.0
08/07/2022,03:57:09,0.003,0.0,0.0,0.0
08/07/2022,03:58:09,0.002,0.0,0.0,0.0
08/07/2022,03:59:08,0.002,0.0,0.0,0.0
08/07/2022,04:00:08,0.003,0.0,0.0,0.0
08/07/2022,04:01:17,0.003,0.0,0.0,0.0
08/07/2022,04:02:08,0.003,0.0,0.0,0.0
08/07/2022,04:03:09,0.003,0.0,0.0,0.0
08/07/2022,04:04:09,0.003,0.0,0.0,0.0
08/07/2022,04:05:08,0.003,0.0,0.0,0.0
08/07/2022,04:06:09,0.003,0.0,0.0,0.0
08/07/2022,04:07:09,0.003,0.0,0.0,0.0
08/07/2022,04:08:09,0.004,0.0,0.0,0.0
08/07/2022,04:09:00,0.004,0.0,0.0,0.0
08/07/2022,04:10:09,0.004,0.0,0.0,0.0
08/07/2022,04:11:08,0.004,0.0,0.0,0.0
08/07/2022,04:12:09,0.004,0.0,0.0,0.0
08/07/2022,04:13:08,0.004,0.0,0.0,0.0
08/07/2022,04:14:08,0.005,0.0,0.0,0.0
08/07/2022,04:15:08,0.005,0.0,0.0,0.0
08/07/2022,04:16:09,0.005,0.0,0.0,0.0
08/07/2022,04:17:08,0.005,0.0,0.0,0.0
08/07/2022,04:18:16,0.007,0.0,0.0,0.0
08/07/2022,04:19:08,0.006,0.0,0.0,0.0
08/07/2022,04:20:17,0.006,0.0,0.0,0.0
08/07/2022,04:21:08,0.005,0.0,0.0,0.0
08/07/2022,04:22:09,0.006,0.0,0.0,0.0
08/07/2022,04:23:08,0.007,0.0,0.0,0.0
08/07/2022,04:24:08,0.007,0.0,0.0,0.0
08/07/2022,04:25:08,0.007,0.0,0.0,0.0
08/07/2022,04:26:09,0.007,0.0,0.001,0.001
08/07/2022,04:27:08,0.008,0.0,0.001,0.0
08/07/2022,04:28:09,0.008,0.0,0.001,0.0
08/07/2022,04:29:08,0.008,0.0,0.001,0.0
08/07/2022,04:30:09,0.008,0.0,0.001,0.0
08/07/2022,04:31:08,0.008,0.0,0.001,0.0
08/07/2022,04:32:09,0.009,0.0,0.001,0.0
08/07/2022,04:33:17,0.009,0.0,0.002,0.001
08/07/2022,04:34:08,0.010,0.0,0.002,0.0
08/07/2022,04:35:08,0.010,0.0,0.002,0.0
08/07/2022,04:36:16,0.011,0.0,0.002,0.0
08/07/2022,04:37:08,0.011,0.0,0.002,0.0
08/07/2022,04:38:10,0.012,0.0,0.002,0.0
08/07/2022,04:39:08,0.012,0.0,0.003,0.001
08/07/2022,04:40:08,0.012,0.0,0.003,0.0
08/07/2022,04:41:16,0.012,0.0,0.003,0.0
08/07/2022,04:42:08,0.013,0.0,0.003,0.0
08/07/2022,04:43:09,0.013,0.0,0.004,0.001
08/07/2022,04:44:08,0.014,0.0,0.004,0.0
08/07/2022,04:45:09,0.014,0.0,0.004,0.0
08/07/2022,04:46:17,0.016,0.0,0.004,0.0
08/07/2022,04:47:09,0.016,0.0,0.005,0.001
08/07/2022,04:48:08,0.016,0.0,0.005,0.0
08/07/2022,04:49:09,0.018,0.0,0.005,0.0
08/07/2022,04:50:25,0.018,0.0,0.005,0.0
08/07/2022,04:52:09,0.019,0.0,0.006,0.001
08/07/2022,04:53:08,0.019,0.0,0.006,0.0
08/07/2022,04:54:08,0.020,0.0,0.007,0.001
08/07/2022,04:55:08,0.021,0.0,0.007,0.0
08/07/2022,04:56:09,0.021,0.0,0.007,0.0
08/07/2022,04:57:08,0.023,0.0,0.008,0.001
08/07/2022,04:58:08,0.022,0.0,0.008,0.0
08/07/2022,04:59:09,0.023,0.0,0.008,0.0
08/07/2022,05:00:09,0.024,0.0,0.009,0.001
08/07/2022,05:01:00,0.025,0.0,0.009,0.0
08/07/2022,05:02:09,0.025,0.0,0.01,0.001
08/07/2022,05:03:17,0.026,0.0,0.01,0.0
08/07/2022,05:04:08,0.027,0.0,0.01,0.0
08/07/2022,05:05:17,0.028,0.0,0.011,0.001
08/07/2022,05:06:17,0.029,0.0,0.011,0.0
08/07/2022,05:07:09,0.030,0.0,0.012,0.001
08/07/2022,05:08:09,0.030,0.0,0.012,0.0
08/07/2022,05:09:08,0.031,0.0,0.013,0.001
08/07/2022,05:10:09,0.032,0.0,0.013,0.0
08/07/2022,05:11:09,0.033,0.0,0.014,0.001
08/07/2022,05:12:09,0.034,0.0,0.015,0.001
08/07/2022,05:13:08,0.035,0.0,0.015,0.0
08/07/2022,05:14:09,0.036,0.0,0.016,0.001
08/07/2022,05:15:16,0.036,0.0,0.016,0.0
08/07/2022,05:16:09,0.037,0.0,0.017,0.001
08/07/2022,05:17:08,0.039,0.0,0.018,0.001
08/07/2022,05:18:09,0.039,0.0,0.018,0.0
08/07/2022,05:19:08,0.041,0.0,0.019,0.001
08/07/2022,05:20:09,0.043,0.0,0.02,0.001
08/07/2022,05:21:08,0.045,0.0,0.02,0.0
08/07/2022,05:22:08,0.045,0.0,0.021,0.001
08/07/2022,05:23:09,0.046,0.0,0.022,0.001
08/07/2022,05:24:08,0.047,0.0,0.023,0.001
08/07/2022,05:25:10,0.049,0.0,0.023,0.0
08/07/2022,05:26:08,0.050,0.0,0.024,0.001
08/07/2022,05:27:09,0.051,0.0,0.025,0.001
08/07/2022,05:28:08,0.052,0.0,0.026,0.001
08/07/2022,05:29:08,0.054,0.0,0.027,0.001
08/07/2022,05:30:09,0.054,0.0,0.028,0.001
08/07/2022,05:31:09,0.057,0.0,0.029,0.001
08/07/2022,05:32:08,0.058,0.0,0.03,0.001
08/07/2022,05:33:08,0.059,0.0,0.031,0.001
08/07/2022,05:34:09,0.061,0.0,0.032,0.001
08/07/2022,05:35:17,0.063,0.0,0.033,0.001
08/07/2022,05:36:08,0.065,0.0,0.034,0.001
08/07/2022,05:37:08,0.065,0.0,0.035,0.001
08/07/2022,05:38:08,0.068,0.0,0.036,0.001
08/07/2022,05:39:09,0.069,0.0,0.037,0.001
08/07/2022,05:40:08,0.071,0.0,0.038,0.001
08/07/2022,05:41:09,0.073,0.0,0.039,0.001
08/07/2022,05:42:08,0.073,0.0,0.041,0.002
08/07/2022,05:43:09,0.076,0.0,0.042,0.001
08/07/2022,05:44:09,0.079,0.0,0.043,0.001
08/07/2022,05:45:09,0.080,0.0,0.044,0.001
08/07/2022,05:46:09,0.082,0.0,0.046,0.002
08/07/2022,05:47:09,0.084,0.0,0.047,0.001
08/07/2022,05:48:08,0.086,0.0,0.049,0.002
08/07/2022,05:49:08,0.088,0.0,0.05,0.001
08/07/2022,05:50:09,0.090,0.0,0.052,0.002
08/07/2022,05:51:08,0.091,0.0,0.053,0.001
08/07/2022,05:52:09,0.095,0.0,0.055,0.002
08/07/2022,05:53:09,0.096,0.0,0.056,0.001
08/07/2022,05:54:08,0.099,0.0,0.058,0.002
08/07/2022,05:55:09,0.101,0.0,0.059,0.001
08/07/2022,05:56:09,0.102,0.0,0.061,0.002
08/07/2022,05:57:08,0.105,0.0,0.063,0.002
08/07/2022,05:58:09,0.107,0.0,0.065,0.002
08/07/2022,05:59:09,0.110,0.0,0.066,0.001
08/07/2022,06:00:08,0.112,0.0,0.068,0.002
08/07/2022,06:01:09,0.115,0.0,0.07,0.002
08/07/2022,06:02:09,0.118,0.0,0.072,0.002
08/07/2022,06:03:08,0.121,0.0,0.074,0.002
08/07/2022,06:04:09,0.122,0.0,0.076,0.002
08/07/2022,06:05:08,0.124,0.0,0.078,0.002
08/07/2022,06:06:09,0.127,0.0,0.08,0.002
08/07/2022,06:07:08,0.131,0.0,0.082,0.002
08/07/2022,06:08:08,0.133,0.0,0.085,0.003
08/07/2022,06:09:09,0.136,0.0,0.087,0.002
08/07/2022,06:10:09,0.139,0.0,0.089,0.002
08/07/2022,06:11:08,0.140,0.0,0.092,0.003
08/07/2022,06:12:09,0.144,0.0,0.094,0.002
08/07/2022,06:13:09,0.147,0.0,0.096,0.002
08/07/2022,06:14:09,0.151,0.0,0.099,0.003
08/07/2022,06:15:08,0.152,0.0,0.101,0.002
08/07/2022,06:16:09,0.156,0.0,0.104,0.003
08/07/2022,06:17:08,0.159,0.0,0.107,0.003
08/07/2022,06:18:09,0.164,0.0,0.109,0.002
08/07/2022,06:19:08,0.166,0.0,0.112,0.003
08/07/2022,06:20:09,0.170,0.0,0.115,0.003
08/07/2022,06:21:10,0.173,0.0,0.118,0.003
08/07/2022,06:22:09,0.176,0.0,0.121,0.003
08/07/2022,06:23:09,0.180,0.0,0.124,0.003
08/07/2022,06:24:09,0.183,0.0,0.127,0.003
08/07/2022,06:25:09,0.186,0.0,0.13,0.003
08/07/2022,06:26:09,0.190,0.0,0.133,0.003
08/07/2022,06:27:08,0.193,0.0,0.136,0.003
08/07/2022,06:28:08,0.197,0.0,0.139,0.003
08/07/2022,06:29:09,0.201,0.0,0.143,0.004
08/07/2022,06:30:08,0.204,0.0,0.146,0.003
08/07/2022,06:31:08,0.209,0.0,0.149,0.003
08/07/2022,06:32:09,0.212,0.0,0.153,0.004
08/07/2022,06:33:09,0.215,0.0,0.156,0.003
08/07/2022,06:34:17,0.221,1.0,0.161,0.005
08/07/2022,06:35:08,0.224,1.0,0.164,0.003
08/07/2022,06:36:09,0.228,1.0,0.168,0.004
08/07/2022,06:37:08,0.233,1.0,0.171,0.003
08/07/2022,06:38:09,0.237,1.0,0.175,0.004
08/07/2022,06:39:08,0.242,1.0,0.179,0.004
08/07/2022,06:40:09,0.245,1.0,0.183,0.004
08/07/2022,06:41:08,0.249,1.0,0.187,0.004
08/07/2022,06:42:17,0.255,1.0,0.192,0.005
08/07/2022,06:43:09,0.259,1.0,0.196,0.004
08/07/2022,06:44:08,0.260,1.0,0.2,0.004
08/07/2022,06:45:08,0.269,1.0,0.205,0.005
08/07/2022,06:46:08,0.273,1.0,0.209,0.004
08/07/2022,06:47:09,0.276,1.0,0.214,0.005
08/07/2022,06:48:08,0.282,1.0,0.218,0.004
08/07/2022,06:49:09,0.286,1.0,0.223,0.005
08/07/2022,06:50:08,0.292,1.0,0.228,0.005
08/07/2022,06:51:09,0.296,1.0,0.233,0.005
08/07/2022,06:52:17,0.303,1.0,0.239,0.006
08/07/2022,06:52:56,0.305,1.0,0.242,0.003
08/07/2022,06:54:09,0.310,1.0,0.248,0.006
08/07/2022,06:55:08,0.317,1.0,0.253,0.005
08/07/2022,06:56:09,0.321,1.0,0.259,0.006
08/07/2022,06:57:08,0.326,1.0,0.264,0.005
08/07/2022,06:58:17,0.333,1.0,0.27,0.006
08/07/2022,06:59:09,0.336,1.0,0.275,0.005
08/07/2022,07:00:08,0.342,1.0,0.281,0.006
08/07/2022,07:01:09,0.347,1.0,0.287,0.006
08/07/2022,07:02:09,0.354,1.0,0.292,0.005
08/07/2022,07:03:09,0.359,1.0,0.298,0.006
08/07/2022,07:04:09,0.364,1.0,0.304,0.006
08/07/2022,07:05:09,0.368,1.0,0.31,0.006
08/07/2022,07:06:08,0.376,1.0,0.317,0.007
08/07/2022,07:07:09,0.382,1.0,0.323,0.006
08/07/2022,07:08:22,0.389,1.0,0.331,0.008
08/07/2022,07:10:10,0.398,1.0,0.343,0.012
08/07/2022,07:11:09,0.404,1.0,0.349,0.006
08/07/2022,07:12:09,0.410,1.0,0.356,0.007
08/07/2022,07:13:09,0.416,1.0,0.363,0.007
08/07/2022,07:14:08,0.421,1.0,0.37,0.007
08/07/2022,07:15:08,0.428,1.0,0.377,0.007
08/07/2022,07:16:09,0.432,1.0,0.384,0.007
08/07/2022,07:17:09,0.440,1.0,0.391,0.007
08/07/2022,07:18:17,0.446,1.0,0.4,0.009
08/07/2022,07:19:09,0.452,1.0,0.406,0.006
08/07/2022,07:20:09,0.459,1.0,0.414,0.008
08/07/2022,07:21:09,0.464,1.0,0.422,0.008
08/07/2022,07:22:09,0.470,1.0,0.429,0.007
08/07/2022,07:23:09,0.476,1.0,0.437,0.008
08/07/2022,07:24:08,0.484,1.0,0.445,0.008
08/07/2022,07:25:09,0.489,1.0,0.453,0.008
08/07/2022,07:26:16,0.499,1.0,0.463,0.01
08/07/2022,07:27:09,0.504,1.0,0.47,0.007
08/07/2022,07:28:09,0.511,1.0,0.478,0.008
08/07/2022,07:29:09,0.520,1.0,0.487,0.009
08/07/2022,07:30:08,0.524,1.0,0.496,0.009
08/07/2022,07:31:18,0.531,1.0,0.506,0.01
08/07/2022,07:32:08,0.539,1.0,0.513,0.007
08/07/2022,07:33:09,0.544,1.0,0.522,0.009
08/07/2022,07:34:17,0.555,1.0,0.533,0.011
08/07/2022,07:35:09,0.559,1.0,0.541,0.008
08/07/2022,07:36:09,0.567,1.0,0.55,0.009
08/07/2022,07:37:09,0.575,1.0,0.56,0.01
08/07/2022,07:38:09,0.579,1.0,0.57,0.01
08/07/2022,07:39:08,0.590,1.0,0.579,0.009
08/07/2022,07:40:09,0.597,1.0,0.589,0.01
08/07/2022,07:41:09,0.607,1.0,0.599,0.01
08/07/2022,07:42:08,0.613,1.0,0.609,0.01
08/07/2022,07:43:09,0.621,1.0,0.619,0.01
08/07/2022,07:44:08,0.630,1.0,0.63,0.011
08/07/2022,07:45:09,0.635,1.0,0.641,0.011
08/07/2022,07:46:09,0.640,1.0,0.651,0.01
08/07/2022,07:47:08,0.651,1.0,0.662,0.011
08/07/2022,07:48:09,0.657,2.0,0.673,0.011
08/07/2022,07:49:09,0.666,2.0,0.684,0.011
08/07/2022,07:50:09,0.674,2.0,0.695,0.011
08/07/2022,07:51:10,0.683,2.0,0.706,0.011
08/07/2022,07:52:09,0.692,2.0,0.718,0.012
08/07/2022,07:53:09,0.701,2.0,0.729,0.011
08/07/2022,07:54:08,0.711,2.0,0.741,0.012
08/07/2022,07:55:09,0.717,2.0,0.753,0.012
08/07/2022,07:56:09,0.726,2.0,0.765,0.012
08/07/2022,07:57:08,0.733,2.0,0.777,0.012
08/07/2022,07:58:09,0.742,2.0,0.79,0.013
08/07/2022,07:59:09,0.751,2.0,0.802,0.012
08/07/2022,08:00:08,0.760,2.0,0.814,0.012
08/07/2022,08:01:08,0.769,2.0,0.827,0.013
08/07/2022,08:02:17,0.777,2.0,0.842,0.015
08/07/2022,08:03:08,0.783,2.0,0.853,0.011
08/07/2022,08:04:09,0.792,2.0,0.866,0.013
08/07/2022,08:05:18,0.803,2.0,0.881,0.015
08/07/2022,08:07:09,0.816,2.0,0.907,0.026
08/07/2022,08:08:09,0.827,2.0,0.92,0.013
08/07/2022,08:09:09,0.836,2.0,0.934,0.014
08/07/2022,08:10:09,0.842,2.0,0.948,0.014
08/07/2022,08:11:08,0.851,2.0,0.962,0.014
08/07/2022,08:12:09,0.858,2.0,0.977,0.015
08/07/2022,08:13:08,0.864,2.0,0.991,0.014
08/07/2022,08:14:08,0.880,2.0,1.005,0.014
08/07/2022,08:15:17,0.891,2.0,1.022,0.017
08/07/2022,08:16:08,0.898,2.0,1.035,0.013
08/07/2022,08:17:09,0.903,2.0,1.05,0.015
08/07/2022,08:18:17,0.914,2.0,1.067,0.017
08/07/2022,08:19:08,0.918,2.0,1.08,0.013
08/07/2022,08:20:09,0.930,2.0,1.095,0.015
08/07/2022,08:21:09,0.939,2.0,1.112,0.017
08/07/2022,08:22:09,0.950,2.0,1.127,0.015
08/07/2022,08:23:09,0.957,2.0,1.143,0.016
08/07/2022,08:24:08,0.966,2.0,1.159,0.016
08/07/2022,08:25:09,0.973,2.0,1.175,0.016
08/07/2022,08:26:09,0.981,2.0,1.191,0.016
08/07/2022,08:27:08,0.987,2.0,1.208,0.017
08/07/2022,08:28:17,1.000,2.0,1.226,0.018
08/07/2022,08:29:08,1.010,2.0,1.241,0.015
08/07/2022,08:30:09,1.033,2.0,1.258,0.017
08/07/2022,08:31:09,1.042,2.0,1.276,0.018
08/07/2022,08:32:09,1.048,2.0,1.293,0.017
08/07/2022,08:33:09,1.048,2.0,1.31,0.017
08/07/2022,08:34:09,1.070,2.0,1.328,0.018
08/07/2022,08:35:09,1.075,2.0,1.346,0.018
08/07/2022,08:36:08,1.090,3.0,1.364,0.018
08/07/2022,08:37:15,1.083,2.0,1.384,0.02
08/07/2022,08:39:10,1.001,2.0,1.418,0.034
08/07/2022,08:40:09,0.936,2.0,1.436,0.018
08/07/2022,08:41:09,0.845,2.0,1.451,0.015
08/07/2022,08:42:09,1.144,3.0,1.468,0.017
08/07/2022,08:43:09,1.154,3.0,1.487,0.019
08/07/2022,08:44:17,1.166,3.0,1.509,0.022
08/07/2022,08:45:09,0.809,2.0,1.525,0.016
08/07/2022,08:46:09,0.741,2.0,1.538,0.013
08/07/2022,08:47:09,1.161,3.0,1.551,0.013
08/07/2022,08:48:08,0.795,2.0,1.568,0.017
08/07/2022,08:49:09,1.175,3.0,1.583,0.015
08/07/2022,08:50:09,0.829,2.0,1.601,0.018
08/07/2022,08:51:09,0.783,2.0,1.615,0.014
08/07/2022,08:52:08,1.223,3.0,1.632,0.017
08/07/2022,08:53:09,1.239,3.0,1.653,0.021
08/07/2022,08:54:09,1.220,3.0,1.674,0.021
08/07/2022,08:55:10,1.261,3.0,1.694,0.02
08/07/2022,08:56:09,1.151,3.0,1.711,0.017
08/07/2022,08:57:09,1.278,3.0,1.731,0.02
08/07/2022,08:58:09,1.292,3.0,1.753,0.022
08/07/2022,08:59:09,1.303,3.0,1.774,0.021
08/07/2022,09:00:08,1.316,3.0,1.796,0.022
08/07/2022,09:01:09,1.328,3.0,1.818,0.022
08/07/2022,09:02:09,1.341,3.0,1.841,0.023
08/07/2022,09:03:09,1.352,3.0,1.862,0.021
08/07/2022,09:04:09,1.358,3.0,1.886,0.024
08/07/2022,09:05:09,1.364,3.0,1.908,0.022
08/07/2022,09:06:08,1.378,3.0,1.93,0.022
08/07/2022,09:07:09,1.389,3.0,1.954,0.024
08/07/2022,09:08:09,1.393,3.0,1.977,0.023
08/07/2022,09:09:09,1.399,3.0,2.0,0.023
08/07/2022,09:10:09,1.416,3.0,2.024,0.024
08/07/2022,09:11:09,1.426,3.0,2.047,0.023
08/07/2022,09:12:09,1.437,3.0,2.072,0.025
08/07/2022,09:13:09,1.437,3.0,2.095,0.023
08/07/2022,09:14:09,1.058,2.0,2.119,0.024
08/07/2022,09:15:17,1.470,3.0,2.145,0.026
08/07/2022,09:16:08,1.484,3.0,2.167,0.022
08/07/2022,09:17:09,1.505,3.0,2.192,0.025
08/07/2022,09:18:09,1.518,3.0,2.217,0.025
08/07/2022,09:19:09,1.542,4.0,2.243,0.026
08/07/2022,09:20:09,1.560,4.0,2.268,0.025
08/07/2022,09:21:10,1.564,4.0,2.295,0.027
08/07/2022,09:22:09,1.569,4.0,2.321,0.026
08/07/2022,09:23:09,1.574,4.0,2.346,0.025
08/07/2022,09:24:09,1.591,4.0,2.374,0.028
08/07/2022,09:25:09,1.612,4.0,2.4,0.026
08/07/2022,09:26:09,1.631,4.0,2.426,0.026
08/07/2022,09:27:09,1.655,4.0,2.455,0.029
08/07/2022,09:28:17,1.343,3.0,2.484,0.029
08/07/2022,09:29:09,1.097,3.0,2.5,0.016
08/07/2022,09:30:09,1.441,3.0,2.523,0.023
08/07/2022,09:31:09,1.111,3.0,2.549,0.026
08/07/2022,09:32:09,1.645,4.0,2.577,0.028
08/07/2022,09:33:09,1.737,4.0,2.601,0.024
08/07/2022,09:34:09,1.727,4.0,2.629,0.028
08/07/2022,09:35:09,1.718,4.0,2.657,0.028
08/07/2022,09:36:09,1.699,4.0,2.683,0.026
08/07/2022,09:37:09,1.697,4.0,2.713,0.03
08/07/2022,09:38:09,1.695,4.0,2.74,0.027
08/07/2022,09:39:09,1.696,4.0,2.768,0.028
08/07/2022,09:40:09,1.713,4.0,2.798,0.03
08/07/2022,09:41:09,1.727,4.0,2.825,0.027
08/07/2022,09:42:09,1.735,4.0,2.854,0.029
08/07/2022,09:43:09,1.745,4.0,2.883,0.029
08/07/2022,09:44:09,1.755,4.0,2.913,0.03
08/07/2022,09:45:09,1.764,4.0,2.942,0.029
08/07/2022,09:46:17,1.775,4.0,2.975,0.033
08/07/2022,09:47:08,1.781,4.0,3.001,0.026
08/07/2022,09:48:09,1.791,4.0,3.031,0.03
08/07/2022,09:49:09,1.801,4.0,3.061,0.03
08/07/2022,09:50:09,1.820,4.0,3.091,0.03
08/07/2022,09:51:09,1.828,4.0,3.121,0.03
08/07/2022,09:52:00,1.838,4.0,3.147,0.026
08/07/2022,09:53:09,1.850,4.0,3.183,0.036
08/07/2022,09:54:09,1.853,4.0,3.214,0.031
08/07/2022,09:55:09,1.859,4.0,3.244,0.03
08/07/2022,09:56:09,1.886,4.0,3.275,0.031
08/07/2022,09:57:09,1.255,3.0,3.303,0.028
08/07/2022,09:58:09,1.896,4.0,3.327,0.024
08/07/2022,09:59:18,1.890,4.0,3.364,0.037
08/07/2022,10:00:09,1.902,4.0,3.391,0.027
08/07/2022,10:01:09,1.927,4.0,3.422,0.031
08/07/2022,10:02:17,1.929,4.0,3.46,0.038
08/07/2022,10:03:08,1.931,4.0,3.486,0.026
08/07/2022,10:04:09,1.934,4.0,3.52,0.034
08/07/2022,10:05:09,1.946,4.0,3.552,0.032
08/07/2022,10:06:08,1.978,5.0,3.584,0.032
08/07/2022,10:07:09,1.989,5.0,3.617,0.033
08/07/2022,10:08:17,1.898,4.0,3.648,0.031
08/07/2022,10:09:09,2.011,5.0,3.678,0.03
08/07/2022,10:10:17,1.621,4.0,3.713,0.035
08/07/2022,10:11:09,2.058,5.0,3.736,0.023